Huntsville Madison, AL

9:55 AM CDT on June 25, 2017 (GMT -0500)
Huntsville Madison

Weather History for KMDQ - April, 2013

Change the Weather History Date:

Monday, April 1, 2013

  Actual Average (KHSV) Record (KHSV)
Temperature  
Mean Temperature 55 °F -  
Max Temperature 64 °F 69 °F 87 °F (1963)
Min Temperature 46 °F 44 °F 24 °F (1923)
Degree Days  
Heating Degree Days 10    
Growing Degree Days 5 (Base 50)    
Moisture  
Dew Point 40 °F    
Average Humidity 57    
Maximum Humidity 94    
Minimum Humidity 37    
Precipitation  
Precipitation 0.00 in - - ()
Sea Level Pressure  
Sea Level Pressure 30.05 in    
Wind  
Wind Speed 6 mph (North)    
Max Wind Speed 13 mph    
Max Gust Speed -    
Visibility 9 miles    
Events      
Averages and records for this station are not official NWS values.
T = Trace of Precipitation, MM = Missing Value Source: NWS Daily Summary

Daily Weather History Graph

Daily Weather History Graph

Search for Another Location

Airport or City:

Trip Planner

Search our weather history database for the weather conditions in past years. The results will help you decide how hot, cold, wet, or windy it might be!

Date:

Astronomy

Apr. 01, 2013 Rise Set
Actual Time 6:32 AM CDT 7:07 PM CDT
Civil Twilight 6:07 AM CDT 7:33 PM CDT
Nautical Twilight 5:37 AM CDT 8:03 PM CDT
Astronomical Twilight 5:06 AM CDT 8:33 PM CDT
Moon 12:05 AM CDT (4/1) 10:29 AM CDT (4/1)
Length of Visible Light 13h 25m
Length of Day
12h 34m
Waning Gibbous, 67% of the Moon is Illuminated
Apr 1
Waning Gibbous
Apr 2
Last Quarter
Apr 10
New
Apr 18
First Quarter
Apr 25
Full

Hourly Weather History & Observations

Time (CDT) Temp. Windchill Dew Point Humidity Pressure Visibility Wind Dir Wind Speed Gust Speed Precip Events Conditions
12:15 AM 51.8 °F - 50.0 °F 94% 29.93 in 5.0 mi NNE 5.8 mph - N/A   Overcast
12:55 AM 51.8 °F - 48.2 °F 88% 29.93 in 3.0 mi North 5.8 mph - N/A   Overcast
2:35 AM 50.0 °F - 46.4 °F 87% 29.93 in 7.0 mi Calm Calm - N/A   Overcast
1:15 PM 60.8 °F - 46.4 °F 59% 30.06 in 10.0 mi North 8.1 mph - N/A   Mostly Cloudy
3:55 PM 64.4 °F - 42.8 °F 45% 30.04 in 10.0 mi North 10.4 mph - N/A   Scattered Clouds
4:15 PM 62.6 °F - 42.8 °F 48% 30.03 in 10.0 mi North 12.7 mph - N/A   Scattered Clouds
4:35 PM 64.4 °F - 41.0 °F 42% 30.03 in 10.0 mi North 9.2 mph - N/A   Scattered Clouds
5:15 PM 62.6 °F - 41.0 °F 45% 30.03 in 10.0 mi North 8.1 mph - N/A   Scattered Clouds
5:35 PM 64.4 °F - 37.4 °F 37% 30.02 in 10.0 mi NNE 5.8 mph - N/A   Clear
5:55 PM 62.6 °F - 39.2 °F 42% 30.03 in 10.0 mi NNE 4.6 mph - N/A   Clear
6:15 PM 62.6 °F - 39.2 °F 42% 30.03 in 10.0 mi North 4.6 mph - N/A   Clear
6:35 PM 60.8 °F - 41.0 °F 48% 30.03 in 10.0 mi North 4.6 mph - N/A   Clear
6:55 PM 60.8 °F - 39.2 °F 45% 30.03 in 10.0 mi Calm Calm - N/A   Clear
7:15 PM 55.4 °F - 41.0 °F 58% 30.04 in 10.0 mi NNE 3.5 mph - N/A   Clear
7:35 PM 55.4 °F - 41.0 °F 58% 30.04 in 10.0 mi Calm Calm - N/A   Clear
8:35 PM 51.8 °F - 37.4 °F 58% 30.07 in 10.0 mi NNW 5.8 mph - N/A   Clear
8:55 PM 51.8 °F - 37.4 °F 58% 30.08 in 10.0 mi NNW 4.6 mph - N/A   Clear
9:15 PM 51.8 °F - 35.6 °F 54% 30.09 in 10.0 mi Calm Calm - N/A   Clear
9:35 PM 51.8 °F - 37.4 °F 58% 30.09 in 10.0 mi NNW 3.5 mph - N/A   Clear
9:55 PM 50.0 °F - 37.4 °F 62% 30.10 in 10.0 mi North 5.8 mph - N/A   Clear
10:15 PM 48.2 °F - 35.6 °F 62% 30.11 in 10.0 mi NNW 5.8 mph - N/A   Clear
10:35 PM 50.0 °F - 35.6 °F 58% 30.11 in 10.0 mi North 6.9 mph - N/A   Clear
10:55 PM 50.0 °F - 35.6 °F 58% 30.12 in 10.0 mi North 6.9 mph - N/A   Clear
11:15 PM 50.0 °F - 33.8 °F 54% 30.12 in 10.0 mi NNE 5.8 mph - N/A   Clear
11:35 PM 46.4 °F 44.3 °F 35.6 °F 66% 30.12 in 10.0 mi North 4.6 mph - N/A   Clear
11:55 PM 48.2 °F - 33.8 °F 58% 30.12 in 10.0 mi North 6.9 mph - N/A   Clear